SCP
0 0 0 0 0 0 0 0 0 0 0 0 0 0 0 0 0 0 0 0 0 0
0 0 0 0 0 0 0 0 0 0 0 0 0 0 0 0 0 0 0 0 0 0
0 0 0 0 0 0 0 0 0 0 0 0 0 0 0 0 0 0 0 0 0 0
0 0 0 0 0 0 0 0 0 0 0 0 0 0 0 0 0 0 0 0 0 0
0 0 0 0 0 0 0 0 0 0 -0 -0 -0 0 0 0 0 0 0 0 0 0
0 0 0 0 0 0 0 0 0 -0 -0 -0 0 0 0 0 0 0 0 0 0 0
0 0 0 0 0 0 0 0 0 0 0 0 0 0 0 0 0 0 0 0 0 0
0 0 0 0 0 0 0 0 0 0 0 0 0 0 0 0 0 0 0 0 0 0
0 0 0 0 0 0 0 0 0 0 -0 0 0 0 0 0 0 0 0 0 0 0
0 -0 0 0 0 -0 -0 -0 -0 -0 0 0 0 0 0 0 0 0 0 0 0 0
0 -0 -0 -0 -0 -0 -0 -0 -0 -0 -0 0 0 0 0 0 0 0 0 -0 0 0
-0 -0 -0 -0 -0 -0 -0 -0 -0 0 0 0 0 0 0 0 -0 0 0 0 0 0
-0 0 -0 -0 0 0 0 0 0 0 0 0 0 0 0 -0 0 0 0 0 0 0
-0 -0 -0 -0 0 0 0 0 0 0 0 0 0 0 0 0 0 0 0 0 0 0
Wind_Speed_500mb
70 66 60 52 46 46 50 53 54 53 58 61 67 67 56 47 46 55 51 49 54 54
53 53 55 49 50 50 48 46 48 54 63 70 73 77 62 56 53 51 56 56 51 53
46 48 51 55 53 46 46 50 55 62 68 76 83 83 67 60 57 55 54 60 53 50
47 43 44 46 48 52 58 63 71 76 83 86 91 91 73 61 59 59 57 59 55 47
71 68 71 73 73 75 79 83 88 89 91 93 98 92 71 61 58 59 60 58 55 52
81 82 82 78 73 74 80 87 89 88 88 88 85 75 62 58 56 55 56 55 55 48
76 73 72 79 81 78 77 75 76 73 72 71 65 59 57 52 51 50 50 48 55 49
74 80 83 71 66 63 61 60 61 66 68 62 55 52 49 45 47 47 47 46 48 42
66 64 69 63 65 59 56 51 56 61 62 56 50 45 41 45 47 47 48 51 47 45
64 70 62 64 59 56 53 52 59 66 57 48 45 41 43 37 43 52 50 45 42 38
58 61 57 51 50 52 59 67 62 62 43 44 39 40 41 43 39 47 47 42 39 33
52 51 49 51 56 57 54 51 48 39 37 36 39 32 39 35 43 37 40 39 38 37
45 46 50 54 51 48 46 43 35 32 31 29 29 34 31 31 40 40 38 33 36 36
38 40 40 40 37 31 29 30 27 28 19 20 26 16 11 29 31 38 38 36 38 37
Wind_Direction_500mb
272 271 278 266 278 285 290 298 306 313 314 315 323 318 303 285 271 267 265 267 266 265
282 271 267 267 270 273 276 283 292 300 307 308 314 318 304 289 276 269 266 263 270 253
280 267 259 260 264 263 270 280 287 293 297 300 307 311 301 289 277 271 264 262 268 258
269 265 264 266 272 279 282 285 288 292 296 299 301 303 296 284 276 267 263 261 263 262
280 279 280 281 284 286 287 289 291 293 294 295 294 295 287 281 273 264 261 262 258 263
286 287 287 287 288 288 289 290 290 291 291 289 285 283 280 274 268 261 262 262 251 260
286 283 284 288 286 287 286 284 285 285 285 283 281 276 274 266 261 262 263 259 247 254
280 282 286 286 283 284 279 278 279 282 286 283 275 268 264 262 265 265 259 251 241 244
287 289 290 284 287 281 279 278 281 284 286 276 266 264 260 264 264 259 255 249 231 227
287 289 285 285 281 278 279 280 287 286 279 267 267 265 267 261 262 261 250 238 237 224
291 284 287 283 278 273 278 282 280 278 263 273 271 265 262 271 267 245 233 230 223 212
290 286 284 282 280 278 278 278 278 269 274 281 267 270 278 259 229 228 219 205 199 216
288 286 282 287 282 282 275 272 273 277 285 278 279 290 285 245 214 194 182 177 189 202
292 286 287 283 277 273 274 273 279 294 277 274 278 269 185 182 172 169 170 155 150 157
Wind_Speed_850mb
70 66 60 52 46 46 50 53 54 53 58 61 67 67 56 47 46 55 51 49 54 54
53 53 55 49 50 50 48 46 48 54 63 70 73 77 62 56 53 51 56 56 51 53
46 48 51 55 53 46 46 50 55 62 68 76 83 83 67 60 57 55 54 60 53 50
47 43 44 46 48 52 58 63 71 76 83 86 91 91 73 61 59 59 57 59 55 47
71 68 71 73 73 75 79 83 88 89 91 93 98 92 71 61 58 59 60 58 55 52
81 82 82 78 73 74 80 87 89 88 88 88 85 75 62 58 56 55 56 55 55 48
76 73 72 79 81 78 77 75 76 73 72 71 65 59 57 52 51 50 50 48 55 49
74 80 83 71 66 63 61 60 61 66 68 62 55 52 49 45 47 47 47 46 48 42
66 64 69 63 65 59 56 51 56 61 62 56 50 45 41 45 47 47 48 51 47 45
64 70 62 64 59 56 53 52 59 66 57 48 45 41 43 37 43 52 50 45 42 38
58 61 57 51 50 52 59 67 62 62 43 44 39 40 41 43 39 47 47 42 39 33
52 51 49 51 56 57 54 51 48 39 37 36 39 32 39 35 43 37 40 39 38 37
45 46 50 54 51 48 46 43 35 32 31 29 29 34 31 31 40 40 38 33 36 36
38 40 40 40 37 31 29 30 27 28 19 20 26 16 11 29 31 38 38 36 38 37
Wind_Direction_850mb
272 271 278 266 278 285 290 298 306 313 314 315 323 318 303 285 271 267 265 267 266 265
282 271 267 267 270 273 276 283 292 300 307 308 314 318 304 289 276 269 266 263 270 253
280 267 259 260 264 263 270 280 287 293 297 300 307 311 301 289 277 271 264 262 268 258
269 265 264 266 272 279 282 285 288 292 296 299 301 303 296 284 276 267 263 261 263 262
280 279 280 281 284 286 287 289 291 293 294 295 294 295 287 281 273 264 261 262 258 263
286 287 287 287 288 288 289 290 290 291 291 289 285 283 280 274 268 261 262 262 251 260
286 283 284 288 286 287 286 284 285 285 285 283 281 276 274 266 261 262 263 259 247 254
280 282 286 286 283 284 279 278 279 282 286 283 275 268 264 262 265 265 259 251 241 244
287 289 290 284 287 281 279 278 281 284 286 276 266 264 260 264 264 259 255 249 231 227
287 289 285 285 281 278 279 280 287 286 279 267 267 265 267 261 262 261 250 238 237 224
291 284 287 283 278 273 278 282 280 278 263 273 271 265 262 271 267 245 233 230 223 212
290 286 284 282 280 278 278 278 278 269 274 281 267 270 278 259 229 228 219 205 199 216
288 286 282 287 282 282 275 272 273 277 285 278 279 290 285 245 214 194 182 177 189 202
292 286 287 283 277 273 274 273 279 294 277 274 278 269 185 182 172 169 170 155 150 157